Location: Newark
(59.4564°N, 26.6917°E)
Time: 17:05:25
(UTC+00:00)

Vanguard 3 - Pass Details

Date: 01 December 2019
Orbit: 508 x 3263 km, 33.3° (Epoch: 10 December)

Event Time Altitude Azimuth Distance (km) Brightness Sun altitude
Rises 15:10:04 0° 266° (W) 7,069 13.5 -12.3°
Reaches altitude 10° 15:20:18 10° 241° (WSW) 6,204 13.0 -13.6°
Maximum altitude 15:25:13 11° 226° (SW) 6,023 12.6 -14.1°
Drops below altitude 10° 15:30:03 10° 211° (SSW) 6,026 12.3 -14.7°
Sets 15:39:35 0° 184° (S) 6,564 12.0 -15.9°
